[Iaude] MPEC T76: 2023 TE2 [a=1.39,e=0.33,i=13.1,H=25.1]

mpec at marsden.cfa.harvard.edu mpec at marsden.cfa.harvard.edu
Sat Oct 7 02:13:43 EDT 2023


M.P.E.C. 2023-T76                               Issued 2023 October 7, 06:12 UT

     The Minor Planet Electronic Circulars contain information on unusual
         minor planets, routine data on comets and natural satellites,
         and occasional editorial announcements.  They are published
    on behalf of Division F of the International Astronomical Union by the
          Minor Planet Center, Smithsonian Astrophysical Observatory,
                          Cambridge, MA 02138, U.S.A.
			  
             Prepared using the Tamkin Foundation Computer Network

                              MPC at CFA.HARVARD.EDU
            URL https://www.minorplanetcenter.net/    ISSN 1523-6714

                                    2023 TE2                                    


Observations:
     K23T02E* C2023 10 05.59712402 30 18.993+17 53 12.76         19.58wXET076F52
     K23T02E  C2023 10 05.60567902 30 11.520+17 55 27.92               VET076F52
     K23T02E  C2023 10 05.61373302 30 04.469+17 57 35.95         19.55wXET076F52
     K23T02E KB2023 10 05.94035602 25 59.743+19 20 40.49         19.2 GXET076K74
     K23T02E KB2023 10 05.95076302 25 51.197+19 23 17.59         18.7 GXET076K74
     K23T02E KB2023 10 06.07553902 24 10.19 +19 54 25.0          20.3 GVET076I93
     K23T02E KB2023 10 06.07978302 24 06.73 +19 55 26.6          19.8 GVET076I93
     K23T02E KB2023 10 06.08397202 24 03.29 +19 56 27.7          18.8 GVET076I93
     K23T02E hC2023 10 06.11893502 23 32.66 +20 04 45.0          20.0 GVET076L01
     K23T02E hC2023 10 06.12340502 23 29.08 +20 05 49.5          19.5 GVET076L01
     K23T02E hC2023 10 06.12647102 23 26.58 +20 06 32.9          19.6 GVET076L01
     K23T02E  C2023 10 06.32327402 21 09.995+20 53 39.40         19.6 GVET076654
     K23T02E KC2023 10 06.32533702 21 06.16 +20 54 09.2          19.6 GXET076858
     K23T02E  C2023 10 06.32728302 21 06.781+20 54 35.50         19.6 GVET076654
     K23T02E KC2023 10 06.32802802 21 00.60 +20 54 32.9          20.1 VuET076H21
     K23T02E KC2023 10 06.33005502 21 02.35 +20 55 14.7          19.4 GXET076858
     K23T02E KC2023 10 06.33445602 20 58.83 +20 56 16.0          19.5 GXET076858
     K23T02E KC2023 10 06.33578402 20 54.38 +20 56 19.9          20.4 VuET076H21
     K23T02E KC2023 10 06.33772302 20 52.83 +20 56 46.7          20.4 VuET076H21
     K23T02E KC2023 10 06.33966202 20 51.28 +20 57 13.3          20.4 VuET076H21
     K23T02E  C2023 10 06.47761402 19 07.195+21 28 41.15         19.7 GVET076654
     K23T02E  C2023 10 06.48162402 19 04.060+21 29 34.16         19.7 GVET076654
     K23T02E KC2023 10 07.02307202 12 55.30 +23 23 56.5          19.1 GXET076958
     K23T02E KC2023 10 07.02891702 12 51.06 +23 25 06.9          18.9 GXET076958
     K23T02E KC2023 10 07.03470202 12 46.91 +23 26 18.1          18.6 GXET076958
     K23T02E KC2023 10 07.08103202 12 11.07 +23 35 20.2          19.4 GVET076L01
     K23T02E KC2023 10 07.08251302 12 10.03 +23 35 37.9          19.9 GVET076L01
     K23T02E KC2023 10 07.08399402 12 08.92 +23 35 55.6          19.9 GVET076L01
     K23T02E KC2023 10 07.08547702 12 07.84 +23 36 12.6          19.6 GVET076L01
     K23T02E KC2023 10 07.08695902 12 06.80 +23 36 30.2          19.4 GVET076L01
     K23T02E KC2023 10 07.23072002 10 39.75 +24 04 48.8          19.9 VuET076H21
     K23T02E KC2023 10 07.23351802 10 37.75 +24 05 21.5          20.0 VuET076H21
     K23T02E KC2023 10 07.23631702 10 35.75 +24 05 54.0          19.9 VuET076H21
     K23T02E KC2023 10 07.23911602 10 33.78 +24 06 26.4          19.7 VuET076H21
     K23T02E KC2023 10 07.24191302 10 31.80 +24 06 58.9          19.7 VuET076H21

Observer details:
654 Table Mountain Observatory, Wrightwood-PHMC.  Observers N. Evans, P. Choi,
    N. Saini, C. Zhai, R. Trahan, M. Shao.  1.0-m Reflector + CCD.
858 Tebbutt Observatory, Edgewood.  Observer F. B. Zoltowski.  0.51-m f/8.1
    Schmidt-Cassegrain + CCD.
958 Observatoire de Dax.  Observers P. Dupouy, J. B. de Vanssay.  Measurer P.
    Dupouy.  0.43-m f/2.7 Reflector + CCD.
F52 Pan-STARRS 2, Haleakala.  Observers J. Bulger, T. Lowe, P. Minguez, A.
    Schultz, I. Smith, K. Chambers, T. Dukes.  Measurers K. Chambers, T. de
    Boer, J. Bulger, J. Fairlamb, H. Gao, M. Huber, C.-C. Lin, T. Lowe, E.
    Magnier, P. Minguez, Y. Ramanjooloo, A. Schultz, I. Smith, R. Wainscoat,
    R. Weryk, S. Chastel.  1.8-m Ritchey-Chretien + CCD.
H21 Astronomical Research Observatory, Westfield.  Observer R. Holmes.
    Measurers T. Linder, R. Holmes, L. Horn.  0.81-m f/4.0 astrograph + CCD,
    0.76-m f/3.0 astrograph + CCD.
I93 St Pardon de Conques.  Observer F. Losse.  0.40-m f/3.7 reflector + CMO.
K74 Muensterschwarzach Observatory, Schwarzach.  Observer C. Gerhard.  0.30-m
    f/3.75 reflector + CMO.
L01 Visnjan Observatory, Tican.  Observer K. Korlevic.  1.0-m f/2.9 reflector
    + CCD.

Orbital elements:
2023 TE2                                                 Earth MOID = 0.0251 AU
Epoch 2023 Sept. 13.0 TT = JDT 2460200.5                Veres                   
M  14.32482              (2000.0)            P               Q                  
n   0.60370825     Peri.  306.20798     +0.74600877     +0.66415045             
a   1.3864939      Node    12.42746     -0.51484973     +0.62162583             
e   0.3283208      Incl.   13.08878     -0.42237505     +0.41531375             
P   1.63           H   25.14          G   0.15           U   8                  
Residuals in seconds of arc
231005 F52  0.2-  0.1+    231006 858  0.2-  0.1+    231007 958  0.3-  1.1+
231005 F52  0.2+  0.5-    231006 654  0.1+  0.1-    231007 L01  0.1+  0.5-
231005 F52  0.0   0.1+    231006 H21  0.1+  0.0     231007 L01  0.4+  0.2-
231005 K74  0.2-  0.4+    231006 858  0.4-  0.0     231007 L01  0.2-  0.2+
231005 K74  0.0   0.1-    231006 858  0.0   0.1+    231007 L01  0.4-  0.2-
231006 I93  0.3-  0.3+    231006 H21  0.1-  0.1+    231007 L01  0.1-  0.0
231006 I93  0.1+  0.1+    231006 H21  0.1-  0.2+    231007 H21  0.3+  0.2+
231006 I93  0.1+  0.3+    231006 H21  0.1-  0.1+    231007 H21  0.2+  0.3+
231006 L01  0.2-  0.0     231006 654  0.3+  0.2-    231007 H21  0.1+  0.2+
231006 L01  0.1+  0.6+    231006 654  0.0   0.2-    231007 H21  0.4+  0.1+
231006 L01  0.5-  0.2+    231007 958  1.7-  0.3-    231007 H21  0.6+  0.2+
231006 654  0.1+  0.1-    231007 958  1.3-  0.4-

Ephemeris:
2023 TE2                 a,e,i = 1.39, 0.33, 13                  q = 0.9313
Date    TT    R. A. (2000) Decl.     Delta      r    Elong.  Phase     V
2023 09 07    10 39 14.4 -54 10 27   0.1368  0.9486    60.7   112.1    25.0
...
2023 09 22    08 12 41.4 -55 50 24   0.05737 0.9877    71.9   104.9    22.8
...
2023 09 30    04 22 01.0 -22 22 48   0.03102 1.0160   116.7    61.8    19.8
...
2023 10 06    02 25 09.4 +19 37 02   0.04514 1.0398   151.4    27.4    19.7
2023 10 07    02 13 09.7 +23 20 11   0.04959 1.0440   152.7    26.1    19.9
2023 10 08    02 02 37.2 +26 22 03   0.05434 1.0482   153.2    25.4    20.1
...
2023 10 14    01 20 11.6 +36 11 26   0.08636 1.0745   151.6    26.2    21.2
...
2023 10 22    00 53 14.6 +40 19 20   0.1338  1.1116   148.4    28.0    22.2
...
2023 11 06    00 38 41.5 +41 16 31   0.2321  1.1853   143.1    30.1    23.6

M. P. C. Staff               (C) Copyright 2023 MPC           M.P.E.C. 2023-T76




More information about the Iaude mailing list